Location: Unspecified
(0.0000°N, 0.0000°E)
Time: 16:31:53
(UTC+00:00)

Vanguard 1 Rocket - Pass Details

Date: 26 January 2020
Orbit: 650 x 4226 km, 34.3° (Epoch: 24 February)

Event Time Altitude Azimuth Distance (km) Brightness Sun altitude
Rises 21:10:16 0° 267° (W) 8,437 13.1 -41.5°
Reaches altitude 10° 21:19:20 10° 252° (WSW) 7,130 12.5 -43.6°
Maximum altitude 21:34:17 21° 211° (SSW) 5,250 11.5 -46.9°
Drops below altitude 10° 21:45:03 10° 167° (SSE) 4,996 11.2 -49.3°
Sets 21:49:48 0° 150° (SSE) 5,415 11.4 -50.3°
